Gwinner, ND

6:56 PM CDT on April 23, 2017 (GMT -0500)
Gwinner-melroe

Weather History for KGWR - December, 2011

Change the Weather History Date:

Monday, December 12, 2011

  Actual Average (KP67) Record (KP67)
Temperature  
Mean Temperature 24 °F -  
Max Temperature 30 °F 24 °F 34 °F (1997)
Min Temperature 17 °F 11 °F 10 °F (1996)
Degree Days  
Heating Degree Days 42    
Moisture  
Dew Point 19 °F    
Average Humidity 87    
Maximum Humidity 100    
Minimum Humidity 69    
Precipitation  
Precipitation 0.00 in - - ()
Sea Level Pressure  
Sea Level Pressure 30.22 in    
Wind  
Wind Speed 12 mph (North)    
Max Wind Speed 17 mph    
Max Gust Speed 23 mph    
Visibility 10 miles    
Events      
Averages and records for this station are not official NWS values.
T = Trace of Precipitation, MM = Missing Value Source: NWS Daily Summary

Daily Weather History Graph

Daily Weather History Graph

Search for Another Location

Airport or City:

Trip Planner

Search our weather history database for the weather conditions in past years. The results will help you decide how hot, cold, wet, or windy it might be!

Date:

Astronomy

Dec. 12, 2011 Rise Set
Actual Time 8:03 AM CST 4:44 PM CST
Civil Twilight 7:29 AM CST 5:19 PM CST
Nautical Twilight 6:51 AM CST 5:57 PM CST
Astronomical Twilight 6:14 AM CST 6:33 PM CST
Moon 6:59 PM CST (12/12) 9:34 AM CST (12/12)
Length of Visible Light 9h 49m
Length of Day
8h 40m
Waning Gibbous, 95% of the Moon is Illuminated
Dec 12
Waning Gibbous
Dec 17
Last Quarter
Dec 24
New
Jan 1
First Quarter
Jan 9
Full

Hourly Weather History & Observations

Time (CST) Temp. Windchill Dew Point Humidity Pressure Visibility Wind Dir Wind Speed Gust Speed Precip Events Conditions
12:15 AM 21.2 °F 12.6 °F 17.6 °F 86% 30.03 in 10.0 mi North 6.9 mph - 0.00 in   Clear
12:35 AM 21.2 °F 11.7 °F 17.6 °F 86% 30.04 in 9.0 mi North 8.1 mph - 0.00 in   Clear
12:55 AM 19.4 °F 8.6 °F 17.6 °F 93% 30.04 in 10.0 mi North 9.2 mph - 0.00 in   Clear
1:15 AM 21.2 °F 10.9 °F 17.6 °F 86% 30.04 in 9.0 mi NNE 9.2 mph - 0.00 in   Clear
2:15 AM 19.4 °F 8.6 °F 17.6 °F 93% 30.06 in 9.0 mi North 9.2 mph - 0.00 in   Clear
2:55 AM 17.6 °F 6.4 °F 15.8 °F 93% 30.08 in 10.0 mi North 9.2 mph - 0.00 in   Clear
3:15 AM 17.6 °F 5.7 °F 15.8 °F 93% 30.08 in 10.0 mi North 10.4 mph - 0.00 in   Clear
3:55 AM 17.6 °F 5.0 °F 15.8 °F 93% 30.08 in 9.0 mi North 11.5 mph - 0.00 in   Clear
4:15 AM 17.6 °F 4.3 °F 15.8 °F 93% 30.08 in 9.0 mi North 12.7 mph - 0.00 in   Clear
4:35 AM 17.6 °F 4.3 °F 15.8 °F 93% 30.09 in 10.0 mi North 12.7 mph - 0.00 in   Clear
4:55 AM 17.6 °F 4.3 °F 15.8 °F 93% 30.10 in 10.0 mi North 12.7 mph - 0.00 in   Clear
5:15 AM 17.6 °F 4.3 °F 15.8 °F 93% 30.11 in 10.0 mi North 12.7 mph - 0.00 in   Partly Cloudy
5:35 AM 17.6 °F 3.7 °F 15.8 °F 93% 30.12 in 10.0 mi North 13.8 mph - 0.00 in   Mostly Cloudy
5:55 AM 19.4 °F 6.0 °F 17.6 °F 93% 30.12 in 10.0 mi North 13.8 mph - 0.00 in   Overcast
6:15 AM 19.4 °F 5.5 °F 17.6 °F 93% 30.13 in 10.0 mi North 15.0 mph - 0.00 in   Overcast
6:35 AM 19.4 °F 5.0 °F 17.6 °F 93% 30.13 in 10.0 mi North 16.1 mph - 0.00 in   Overcast
6:55 AM 19.4 °F 4.5 °F 17.6 °F 93% 30.14 in 10.0 mi North 17.3 mph - 0.00 in   Overcast
7:15 AM 19.4 °F 5.0 °F 17.6 °F 93% 30.15 in 10.0 mi North 16.1 mph 20.7 mph 0.00 in   Overcast
7:35 AM 19.4 °F 5.5 °F 17.6 °F 93% 30.16 in 10.0 mi North 15.0 mph - 0.00 in   Overcast
8:15 AM 19.4 °F 5.0 °F 17.6 °F 93% 30.18 in 9.0 mi NNE 16.1 mph - 0.00 in   Overcast
8:35 AM 19.4 °F 4.5 °F 19.4 °F 100% 30.18 in 8.0 mi North 17.3 mph - 0.00 in   Overcast
8:55 AM 19.4 °F 5.0 °F 19.4 °F 100% 30.19 in 9.0 mi North 16.1 mph - 0.00 in   Overcast
9:15 AM 19.4 °F 4.5 °F 19.4 °F 100% 30.19 in 8.0 mi North 17.3 mph - 0.00 in   Overcast
9:35 AM 21.2 °F 7.3 °F 19.4 °F 93% 30.20 in 7.0 mi North 16.1 mph - 0.00 in   Overcast
9:55 AM 21.2 °F 6.8 °F 19.4 °F 93% 30.21 in 7.0 mi North 17.3 mph 21.9 mph 0.00 in   Overcast
10:15 AM 21.2 °F 7.3 °F 19.4 °F 93% 30.23 in 8.0 mi North 16.1 mph - 0.00 in   Overcast
10:35 AM 21.2 °F 6.8 °F 19.4 °F 93% 30.23 in 7.0 mi North 17.3 mph 20.7 mph 0.00 in   Overcast
10:55 AM 21.2 °F 6.8 °F 19.4 °F 93% 30.23 in 7.0 mi North 17.3 mph 23.0 mph 0.00 in   Overcast
11:15 AM 23.0 °F 9.2 °F 21.2 °F 93% 30.24 in 6.0 mi North 17.3 mph - 0.00 in   Overcast
11:35 AM 23.0 °F 9.6 °F 21.2 °F 93% 30.24 in 7.0 mi North 16.1 mph - 0.00 in   Overcast
12:15 PM 24.8 °F 11.9 °F 21.2 °F 86% 30.24 in 9.0 mi North 16.1 mph - 0.00 in   Overcast
12:35 PM 24.8 °F 11.9 °F 21.2 °F 86% 30.24 in 9.0 mi North 16.1 mph - 0.00 in   Overcast
12:55 PM 26.6 °F 13.8 °F 21.2 °F 80% 30.23 in 10.0 mi North 17.3 mph - 0.00 in   Overcast
1:15 PM 26.6 °F 14.3 °F 21.2 °F 80% 30.24 in 10.0 mi North 16.1 mph - 0.00 in   Overcast
1:35 PM 28.4 °F 17.5 °F 21.2 °F 74% 30.23 in 10.0 mi North 13.8 mph - 0.00 in   Overcast
1:55 PM 28.4 °F 17.0 °F 21.2 °F 74% 30.23 in 10.0 mi North 15.0 mph - 0.00 in   Overcast
2:15 PM 28.4 °F 16.6 °F 21.2 °F 74% 30.23 in 10.0 mi North 16.1 mph - 0.00 in   Overcast
2:55 PM 30.2 °F 19.8 °F 21.2 °F 69% 30.24 in 10.0 mi North 13.8 mph - 0.00 in   Overcast
3:15 PM 30.2 °F 20.2 °F 21.2 °F 69% 30.25 in 10.0 mi NNE 12.7 mph - 0.00 in   Overcast
3:35 PM 30.2 °F 20.2 °F 21.2 °F 69% 30.26 in 10.0 mi North 12.7 mph - 0.00 in   Overcast
3:55 PM 30.2 °F 19.8 °F 21.2 °F 69% 30.27 in 10.0 mi North 13.8 mph 18.4 mph 0.00 in   Overcast
4:15 PM 30.2 °F 19.3 °F 21.2 °F 69% 30.28 in 10.0 mi North 15.0 mph - 0.00 in   Overcast
4:35 PM 28.4 °F 18.5 °F 21.2 °F 74% 30.28 in 10.0 mi North 11.5 mph - 0.00 in   Overcast
4:55 PM 28.4 °F 18.0 °F 21.2 °F 74% 30.28 in 10.0 mi North 12.7 mph 17.3 mph 0.00 in   Overcast
5:15 PM 28.4 °F 19.1 °F 21.2 °F 74% 30.28 in 10.0 mi North 10.4 mph - 0.00 in   Overcast
5:35 PM 28.4 °F 18.5 °F 21.2 °F 74% 30.29 in 10.0 mi North 11.5 mph - 0.00 in   Overcast
5:55 PM 28.4 °F 20.4 °F 21.2 °F 74% 30.30 in 10.0 mi North 8.1 mph - 0.00 in   Overcast
6:15 PM 28.4 °F 18.0 °F 21.2 °F 74% 30.29 in 10.0 mi North 12.7 mph 18.4 mph 0.00 in   Overcast
6:55 PM 26.6 °F 14.7 °F 21.2 °F 80% 30.30 in 10.0 mi North 15.0 mph - 0.00 in   Overcast
7:15 PM 26.6 °F 13.8 °F 21.2 °F 80% 30.30 in 10.0 mi North 17.3 mph - 0.00 in   Overcast
7:35 PM 24.8 °F 12.9 °F 21.2 °F 86% 30.31 in 10.0 mi North 13.8 mph - 0.00 in   Overcast
7:55 PM 24.8 °F 14.0 °F 19.4 °F 80% 30.33 in 10.0 mi NNE 11.5 mph - 0.00 in   Overcast
8:15 PM 23.0 °F 11.1 °F 19.4 °F 86% 30.32 in 10.0 mi NNE 12.7 mph - 0.00 in   Overcast
8:35 PM 23.0 °F 11.7 °F 19.4 °F 86% 30.33 in 10.0 mi North 11.5 mph - 0.00 in   Overcast
8:55 PM 23.0 °F 11.1 °F 19.4 °F 86% 30.33 in 10.0 mi North 12.7 mph - 0.00 in   Overcast
9:15 PM 23.0 °F 13.9 °F 19.4 °F 86% 30.33 in 10.0 mi NE 8.1 mph - 0.00 in   Overcast
9:35 PM 21.2 °F 9.5 °F 19.4 °F 93% 30.33 in 10.0 mi NNE 11.5 mph - 0.00 in   Overcast
9:55 PM 21.2 °F 10.9 °F 19.4 °F 93% 30.33 in 10.0 mi NNE 9.2 mph - 0.00 in   Overcast
10:15 PM 21.2 °F 10.9 °F 19.4 °F 93% 30.32 in 10.0 mi NNE 9.2 mph - 0.00 in   Overcast
10:35 PM 21.2 °F 10.9 °F 19.4 °F 93% 30.32 in 10.0 mi North 9.2 mph - 0.00 in   Overcast
10:55 PM 21.2 °F 11.7 °F 19.4 °F 93% 30.32 in 10.0 mi NNE 8.1 mph - 0.00 in   Overcast
11:15 PM 21.2 °F 10.1 °F 19.4 °F 93% 30.33 in 10.0 mi North 10.4 mph - 0.00 in   Overcast
11:35 PM 21.2 °F 12.6 °F 19.4 °F 93% 30.34 in 10.0 mi North 6.9 mph - 0.00 in   Overcast
11:55 PM 21.2 °F 10.9 °F 19.4 °F 93% 30.34 in 10.0 mi North 9.2 mph - 0.00 in   Overcast